200 serials | srs audio sandbox keygen 1.10.2.0 registration code

Date Name Success Rate
2011-09-08 10:56:11 FontLook v3.1 Registration Code 51%
2011-09-08 11:42:43 Nic O'Matic 1.6 Registration Code 50%
2011-09-08 11:42:43 Nic O'Matic v1.6 Registration Code 55%
2011-09-08 12:54:14 TimeSlips 10.5 enterprise - with registration code! 0%
2012-12-13 05:12:00 Registration Code For PDFZilla Giveaway 0%
2009-10-22 23:27:25 Audio Sandbox 19%
2009-10-22 23:49:59 SRS Audio Sandbox 67%
2009-10-22 23:49:59 Srs Audio Sandbox 0%
2009-10-22 23:49:59 SRS Audio Sandbox 0%
2009-10-22 23:49:59 SRS Audio Sandbox 1.5.1.0 59%
2012-12-13 10:15:37 SRS Audio SandBox v1.10.1.0 47%
2012-12-13 05:12:00 Registration code:-826510-16101-266644 51%
2009-10-22 23:49:59 SRS Audio Sandbox Activation 59%
2009-10-22 23:48:07 HiFi.MP3.Audio.Batch.Converter.Keygen.by.AT4RE.txt 20%
2009-10-22 23:49:51 Sandbox 3.38 95%
2009-10-22 23:49:59 SRS Sandbox 64%
2009-10-22 23:50:20 Universe Sandbox 32%
2011-09-08 12:40:39 Real Audio Plus v4.0 Code 0%
2012-12-12 06:04:16 Code It Audio Batch Transformer v1.0 0%
2011-09-08 10:42:09 DAS Registration 1.5.2 66%
2011-09-08 10:42:09 DAS Registration For CW5 0%
2011-09-08 10:42:09 DAS Registration v1.5.2 0%
2009-10-17 06:27:02 Lazarus Registration DLL V1.0 59%
2009-10-22 23:48:48 MemoriesonTV Registration 0%
2009-10-22 23:49:42 Registration Wizard 40%
2011-09-08 10:06:47 AnetHelpTool v4.02 Registration 52%
2011-09-08 10:22:13 ByeLines Registration 60%
2011-09-08 10:57:42 Ftgate Registration 63%
2011-09-08 11:15:16 Infodex v2.10 Registration 0%
2011-09-08 11:25:08 Lazarus Registration DLL v1.0 0%
2011-09-08 11:27:46 Mac Opener v3.0 Registration 57%
2011-09-08 11:32:59 mIRC v4.5+ Registration 60%
2011-09-08 11:32:59 mIRC v4.52 Registration 60%
2011-09-08 12:37:02 Quant v2.0 Registration 0%
2011-09-08 12:41:14 Registration Suite 1.0 60%
2011-09-08 12:41:14 Registration Suite v1.0 60%
2011-09-08 12:41:14 Registration Wizard Pro 5.01 46%
2011-09-08 12:41:14 Registration Wizard Pro v5.01 60%
2011-09-08 13:18:59 WinHacker 95 v2.02 Registration 57%
2012-12-13 05:12:00 Registration Key : 526EFEF086E09600449E667EA2DAE8E2E6D642BC 83%
2009-10-22 23:27:21 Ardamax Keylogger 2.9 Registration 56%
2009-10-22 23:48:49 Microsoft Registration Hacker - 39%
2009-10-22 23:49:57 SoudForge ALL (No Registration Requiered) 0%
2009-10-22 23:50:26 Valve's Registration Armor Key-Gen 60%
2011-09-08 10:21:42 Browserola v1.01 Temp. Registration 0%
2011-09-08 11:31:51 Microsoft Registration Hacker 0%
2011-09-08 11:31:51 Microsoft Registration Hacker - 0%
2011-09-08 11:31:51 Microsoft Registration HackerMSREGHACK 0%
2011-09-08 11:32:07 Microstation v5.xx.xx & 95 FULL REGISTRATION 48%
2011-09-08 12:34:57 PolyTrans V1.2E Registration Activator CD-Key 62%
2011-09-08 12:34:57 PolyView v2.9b16 Registration 0%
2011-09-08 12:54:09 Time Registration (German) 1.10 0%
2011-09-08 12:59:30 Super Collapse Registration 100%
2011-09-08 13:23:15 Yipe! II for Windows Registration #154 0%
2012-12-13 08:49:53 Softwarenetz Time Registration v1.10 0%
2012-12-13 08:49:56 Softwarenetz Time Registration v1.14 0%
2012-12-13 15:34:10 Valve's Registration Armor Key-Gen 0%
2009-10-22 23:48:17 Internet Download Manager Registration 50%
2011-09-08 10:25:56 Cheyenne Bitware V4.0 Registration Number 60%
2011-09-08 11:31:51 Microsoft Registration Hacker MSREGHACK 80%
2011-09-08 11:31:51 Microsoft Visual Basic 5 registration cd key 72%
2012-12-12 08:07:32 Download avast 5.0.667 Antivirus registration 0%
2012-12-13 05:12:00 Registration key for x-3gp-video-converter-38540 54%
2012-12-13 13:12:40 Total Image Converter Registration Key 57%
2011-09-08 11:30:16 MediaBlaze 98 v1.01 Win95/NT User: delphic Registration 0%
2009-10-17 06:26:24 Keygen 56%
2009-10-22 23:48:30 Keygen.txt 44%
2009-10-22 23:48:30 KIS Keygen 65%
2009-10-22 23:49:02 Norton Internet Security 2005 Registration Guide 0%
2011-09-08 09:58:40 Acoustica Mixcraft v1.10 Build 15 Registration Info by MaBi 60%
2009-10-22 23:46:27 Disker 2.0.keygen. 34%
2009-10-22 23:47:54 Fresh UI 7.39.keygen.by 0%
2009-10-22 23:48:18 IrfanView 3.97.keygen.by 0%
2009-10-22 23:49:27 Project IGI 2 KeyGen 64%
2009-10-22 23:49:34 Quake 4 (Keygen) 44%
2009-10-22 23:49:54 SmartMovie V3.25 Keygen 90%
2009-10-22 23:50:12 Top Spin *KEYGEN* 0%
2009-10-22 23:50:37 WinDVD 6 KEYGEN 0%
2012-12-12 03:47:57 Battlefield II by a keygen 0%
2012-12-12 07:14:12 Davolutiions KeyGen 0%
2012-12-12 17:28:01 Le Keygen Maya 10%
2012-12-12 19:40:26 Microsoft Visual Basic 2008 Express Edition Registration key 55%
2009-10-17 06:22:10 E-Frontier Amapi V7.52-Keygen 46%
2009-10-22 23:27:13 Adobe Dreamweaver CS3 9.0 Keygen [WTF?!] 0%
2009-10-22 23:27:14 Adobe PhotoShop CS3 10.0 Keygen [WTF?!] 61%
2009-10-22 23:47:41 EmbedThis 1.2 Against Orion's Keygen 0%
2009-10-22 23:47:50 FIFA 2006 PL (DVD-KEYGEN) 0%
2009-10-22 23:47:53 Fresh Diagnose 7.00.keygen.by 40%
2009-10-22 23:47:53 Fresh Download 7.32.keygen.by 64%
2009-10-22 23:47:54 Fresh View 5.00.keygen.by 0%
2009-10-22 23:48:07 Hide IP Platinum 1.22.keygen. 0%
2009-10-22 23:48:59 NBA Live 2005 *Keygen* 0%
2009-10-22 23:49:21 PE Explorer 1.97.keygen.and.patch.only 52%
2009-10-22 23:50:03 System Mechanic Pro 4.0c With Keygen 0%
2009-10-22 23:50:28 Voxengo All Products KeyGen 1.0 0%
2009-10-22 23:50:28 Voxengo All Products KeyGen 1.1 100%
2009-10-22 23:50:28 Voxengo All Products KeyGen 1.2 0%
2009-10-22 23:50:28 Voxengo All Products KeyGen 1.3 0%
2009-10-22 23:50:28 Voxengo All Products KeyGen 1.4 0%
2009-10-22 23:50:28 Voxengo All Products KeyGen 1.5 0%
2009-10-22 23:50:28 Voxengo All Products KeyGen 1.6 38%
2009-10-22 23:50:28 Voxengo All Products KeyGen 1.7 0%
2009-10-22 23:50:34 Webroot Spy Sweeper V4.0.4.458 Keygen 0%
2009-10-22 23:50:35 WinAmp Full 5.o.5x From 5.0+ N-GEN KEYGEN 0%
2009-10-22 23:50:37 Winrar 3.71 Winall Keygen 58%
2011-09-08 12:26:14 O&O Defrag V6 Professional v6.0.710 Keygen 0%
2012-12-12 10:42:03 EmbedThis 1.2 against orion's keygen 0%
2012-12-13 08:21:36 SnowFox All Products Keygen Only v1.0 0%
2012-12-13 13:15:24 Total Uninstall 5.4.2 Keygen [PzS] 0%
2009-10-17 06:22:11 Easy ScreenSaver Station V4.2-Keygen Only 71%
2009-10-22 23:27:13 Adobe CS3 Design Premium Keygen 42%
2009-10-22 23:27:14 Adobe PhotoShop CS3 10.0 & Dreamweaver CS3 9.0 Keygen [WTF?!] 58%
2009-10-22 23:27:14 Advanced Image Resizer 2.0.keygen.by 90%
2009-10-22 23:27:19 Altdo All Products Universal Keygen V1.0 0%
2009-10-22 23:45:54 Command & Conquer Generals PC Keygen 0%
2009-10-22 23:45:56 Counter-Strike Condition Zero Keygen 57%
2009-10-22 23:48:50 Microsoft Windows XP Professional 640 VLK Keygen 36%
2009-10-22 23:49:12 OJOsoft All Products Universal Keygen V1.0 70%
2009-10-22 23:49:34 Quick Screen Capture 2.2.0.keygen.by 0%
2009-10-22 23:49:34 Quick Screen Recorder 1.5.keygen.by 0%
2009-10-22 23:49:34 Quick Screenshot Maker 2.1.0.keygen.by 40%
2009-10-22 23:49:51 Scitools All Products Universal Keygen V1.0 0%
2009-10-22 23:50:12 Treasure Vault 3D Screensaver 1.0.keygen 0%
2011-09-08 12:26:26 Office XP Professional new key from keygen by psx_man 0%
2012-12-12 22:09:07 NetSupport Notify v2.1.3.165.Incl Keygen 10 56%
2012-12-13 04:52:19 RealVNC Enterprise v4.6.3 (Core Keygen) 60%
2012-12-13 07:14:51 Serial o keygen Abbyy PDF Transformer 3.0 52%
2009-10-22 23:48:17 InST4LL KeyGen Serials - InDra Production 12%
2009-10-22 23:48:24 JurikSoft Remote Control Tools 0.9.keygen. 0%
2009-10-22 23:48:29 Kaizen Software All Products Universal Keygen V1.0 52%
2009-10-22 23:48:48 Medion GoPal POI Warner With Crack+Keygen 46%
2009-10-22 23:50:03 SysNucleus USBTrace V2.0.29.Incl Keygen 1000 0%
2009-10-22 23:50:08 Tangible Software All Products Universal Keygen V1.0 35%
2012-12-12 16:56:43 Keygen Skyscape 5-Minute Clinical Consult 61%
2009-10-22 23:48:30 Keygen Microsoft Development Environment 2003 V.7.1.3088 41%
2009-10-22 23:49:41 REALBasic Professional V2008r3.1.Incl Keygen 5000 32%
2009-10-22 23:49:59 SQL.Toolbelt.Bundle.Incl.Keygen.READ.NFO-CROSSFiRE.txt 43%
2009-10-22 23:50:09 The Lord Of The Rings: The Battle For Middle Earth *KEYGEN* 0%
2009-10-22 23:50:33 WASY WGEO Professional V5.0.186.Incl Keygen 8000 0%
2012-12-12 00:17:11 ADVEXSOFT Fast System Washer v3.2.Incl Keygen v3.2 0%
2012-12-12 07:18:31 DDR-PenDrive Recovery(demo) 4.0.1.6+crack, serial, keygen, 78%
2012-12-12 07:44:09 Digital Light And Color Picture Window Pro v5.0.1.11 + Keygen 0%
2012-12-12 11:31:44 FameRing.MovieShop.Suite.Incl.Keygen-NGEN.txt 53%
2012-12-12 17:07:53 Kolor AutoPano Giga v2.0.6.Incl Keygen HAPPY 9 0%
2012-12-13 13:23:23 Traction Software Batch and Print Pro v3.06.Incl Keygen v3.06 0%
2009-10-22 23:46:27 DIGIEFFECTS.BUENA.EFFECTS.PACK.WIN32.FOR.AE.INCL.KEYGEN-GRB.txt 0%
2009-10-22 23:48:30 Kingdia.Video.To.AVI.WMV.MPEG.MOV.SWF.FLV.Converter.Incl.Keygen-BLiZZARD.txt 56%
2012-12-12 17:08:04 Kolor AutoPano Giga v2.0.6.Win64.Incl Keygen HAPPY 9 0%
2012-12-13 10:12:30 SQL.Toolbelt.Bundle.Incl.Patch.and.Keygen.READ.NFO-CROSSFiRE.txt 0%
2012-12-13 11:34:53 Symprex Folder Permissions Manager v4.7.0.Incl Keygen HAPPY 1 55%
2012-12-12 08:06:16 DotNET.Developer.Bundle.Incl.Patch.and.Keygen.READ.NFO-CROSSFiRE.txt 0%
2012-12-13 12:21:19 The Complete Genealogy BuiThe Complete Genealogy Reporter v2009.91118.WinAll Incl Keygen-C 60%
2009-10-17 06:19:27 Bar Code Pro V6.02 48%
2009-10-17 06:20:25 Code Co-op V4.5c 39%
2009-10-17 06:20:25 Code VBA V2.0 41%
2009-10-17 06:20:25 CODE-VB V3.03 23%
2009-10-22 23:44:48 Bar Code 128 3.0 0%
2009-10-22 23:44:48 Bar Code 3 Of 9 2.7 0%
2009-10-22 23:44:48 Bar Code 3 Of 9 3.0b 0%
2009-10-22 23:44:48 Bar Code Pro V6.02 0%
2009-10-22 23:44:48 Bar Code Pro V6.11 0%
2009-10-22 23:45:53 Code Co-op 4.0h 27%
2009-10-22 23:45:53 Code Co-op 4.1 44%
2009-10-22 23:45:53 Code Co-op 4.1a 0%
2009-10-22 23:45:53 Code Co-op 4.2 0%
2011-09-08 10:18:52 Bar Code Pro UPC v1.0 mac 54%
2011-09-08 10:18:52 Bar Code 3 of 9 v3.0b 0%
2011-09-08 10:18:52 Bar Code Pro 6.02 0%
2011-09-08 10:18:52 Bar Code 3 of 9 v2.7 0%
2011-09-08 10:18:52 Bar Code 3 of 9 3.0b 0%
2011-09-08 10:18:48 Bar Code 128 v3.0 0%
2011-09-08 10:18:48 Bar Code 3 of 9 2.7 55%
2011-09-08 10:18:48 Bar Code 128 3.0 0%
2011-09-08 10:27:32 Code 55%
2011-09-08 10:27:32 Code co-op 3.1 0%
2011-09-08 10:27:32 Code Co-Op 3.3b 0%
2011-09-08 10:27:32 Code Co-op 4.0h 0%
2011-09-08 10:27:32 Code Co-op 4.1 60%
2011-09-08 10:27:32 Code Co-op 4.1a 0%
2011-09-08 10:27:32 Code Co-op 4.2 57%
2011-09-08 10:27:32 Code Co-op 4.5c 55%
2011-09-08 10:27:32 Code co-op v3.1 0%
2011-09-08 10:27:32 Code Co-Op v3.3b 61%
2011-09-08 10:27:32 Code Co-op v4.1 0%
2011-09-08 10:27:32 Code Co-op v4.2 0%
2011-09-08 10:27:32 Code Co-op v4.5c 40%
2011-09-08 10:27:36 Code VBA 2.0 0%
2011-09-08 10:27:36 Code Wiz 3.0 0%
2011-09-08 10:27:36 Code Wiz v3.0 0%
2011-09-08 10:27:36 CODE-VB 3.03 57%
2011-09-08 10:27:36 Code:law 0%
2011-09-08 10:46:43 EAN Bar Code 0%
2011-09-08 10:49:57 ESS Code 0%
2011-09-08 10:49:57 ESS Code v6.7 Win 0%
2011-09-08 10:49:57 ESS Code v7.7 and v7.8 53%
2011-09-08 10:49:57 ESS-Code 0%
2011-09-08 10:49:57 ESS-Code 7.x 0%
2011-09-08 10:49:57 ESS-Code v7.5 59%
2011-09-08 10:49:57 ESS-Code v7.x 0%
2011-09-08 10:49:57 ESS-CODE v7.x WIN 0%